CW3643 Weather Reports


time (UTC)temp
C
wind
direction
speed
KPH
gust
KPH
rain 1hr
cm
rain 24hr
cm
rain mn
cm
humidity
%
barometer
mb
20180625192014 21 323 19.3 32.2 0.00 0.00 0.00 63 1020.6
20180625191013 21 326 16.1 33.8 0.00 0.00 0.00 63 1020.5
20180625190029 21 334 20.9 29.0 0.00 0.00 0.00 62 1020.5
20180625185017 21 329 22.5 32.2 0.00 0.00 0.00 63 1020.4
20180625183017 21 324 17.7 30.6 0.00 0.00 0.00 63 1020.4
20180625182017 22 343 17.7 25.7 0.00 0.00 0.00 64 1020.3
20180625181020 22 336 19.3 27.4 0.00 0.00 0.00 63 1020.2
20180625180016 22 295 14.5 25.7 0.00 0.00 0.00 62 1020.1
20180625175014 22 306 17.7 27.4 0.00 0.00 0.00 63 1020.0
20180625174012 22 264 12.9 22.5 0.00 0.00 0.00 63 1020.2
20180625172018 22 327 20.9 35.4 0.00 0.00 0.00 64 1020.1
20180625171025 22 324 20.9 25.7 0.00 0.00 0.00 64 1020.1
20180625170023 22 323 17.7 29.0 0.00 0.00 0.00 63 1020.1
20180625165023 22 321 16.1 29.0 0.00 0.00 0.00 64 1020.1
20180625164019 23 326 16.1 27.4 0.00 0.00 0.00 64 1020.1
20180625163014 23 336 17.7 27.4 0.00 0.00 0.00 64 1020.0
20180625162012 23 336 16.1 22.5 0.00 0.00 0.00 63 1020.0
20180625161014 23 6 6.4 29.0 0.00 0.00 0.00 65 1020.0
20180625160027 23 332 17.7 25.7 0.00 0.00 0.00 64 1020.1
20180625155024 23 333 16.1 24.1 0.00 0.00 0.00 64 1020.0
20180625154029 23 320 8.0 24.1 0.00 0.00 0.00 65 1020.0
20180625153014 23 346 17.7 25.7 0.00 0.00 0.00 64 1020.0
20180625152017 23 334 12.9 25.7 0.00 0.00 0.00 63 1020.1
20180625151015 23 345 19.3 25.7 0.00 0.00 0.00 63 1020.1
20180625150100 23 329 9.7 24.1 0.00 0.00 0.00 62 1020.1
20180625145017 24 328 6.4 17.7 0.00 0.00 0.00 61 1020.2
20180625144034 24 91 6.4 12.9 0.00 0.00 0.00 60 1020.2
20180625143021 24 128 4.8 8.0 0.00 0.00 0.00 59 1020.1
20180625142018 24 299 4.8 11.3 0.00 0.00 0.00 59 1020.1
20180625141020 24 76 1.6 9.7 0.00 0.00 0.00 59 1020.1
20180625140017 23 203 8.0 12.9 0.00 0.00 0.00 60 1020.2
20180625135016 23 164 9.7 14.5 0.00 0.00 0.00 60 1020.2
20180625134027 23 166 8.0 16.1 0.00 0.00 0.00 61 1020.3
20180625133029 23 147 11.3 17.7 0.00 0.00 0.00 61 1020.3
20180625132030 23 181 6.4 16.1 0.00 0.00 0.00 62 1020.3
20180625131025 23 100 8.0 14.5 0.00 0.00 0.00 63 1020.4
20180625130020 23 313 4.8 17.7 0.00 0.00 0.00 61 1020.4
20180625125012 23 159 6.4 19.3 0.00 0.00 0.00 63 1020.5
20180625124114 23 149 11.3 14.5 0.00 0.00 0.00 62 1020.6
20180625123011 22 130 11.3 16.1 0.00 0.00 0.00 62 1020.6
20180625122030 22 147 8.0 16.1 0.00 0.00 0.00 64 1020.5
20180625121023 22 57 4.8 16.1 0.00 0.00 0.00 65 1020.6
20180625120023 22 118 6.4 19.3 0.00 0.00 0.00 66 1020.5
20180625115027 22 57 6.4 16.1 0.00 0.00 0.00 66 1020.4
20180625114027 22 30 6.4 11.3 0.00 0.00 0.00 66 1020.4
20180625113013 22 169 12.9 17.7 0.00 0.00 0.00 67 1020.5
20180625112011 21 108 11.3 17.7 0.00 0.00 0.00 68 1020.7
20180625111028 22 159 9.7 16.1 0.00 0.00 0.00 67 1020.6
20180625110014 21 185 4.8 12.9 0.00 0.00 0.00 68 1020.5
20180625105041 21 133 3.2 12.9 0.00 0.00 0.00 68 1020.4
20180625104028 21 91 3.2 14.5 0.00 0.00 0.00 68 1020.3
20180625102044 21 93 4.8 14.5 0.00 0.00 0.00 69 1020.4
20180625101015 21 327 6.4 12.9 0.00 0.00 0.00 66 1020.4
20180625100022 21 259 6.4 11.3 0.00 0.00 0.00 67 1020.4
20180625095017 21 292 3.2 8.0 0.00 0.00 0.00 67 1020.4
20180625094019 20 14 4.8 11.3 0.00 0.00 0.00 69 1020.3
20180625093013 20 324 1.6 4.8 0.00 0.00 0.00 72 1020.3
20180625092012 19 325 6.4 9.7 0.00 0.00 0.00 71 1020.3
20180625091016 20 297 6.4 14.5 0.00 0.00 0.00 71 1020.2
20180625090028 20 280 6.4 11.3 0.00 0.00 0.00 73 1020.2
20180625085023 19 313 6.4 9.7 0.00 0.00 0.00 73 1020.3
20180625084026 19 325 3.2 11.3 0.00 0.00 0.00 74 1020.3
20180625083013 18 288 4.8 9.7 0.00 0.00 0.00 75 1020.2
20180625082013 18 312 6.4 12.9 0.00 0.00 0.00 75 1020.3
20180625081029 18 313 8.0 12.9 0.00 0.00 0.00 76 1020.2
20180625080031 18 335 6.4 11.3 0.00 0.00 0.00 76 1020.1
20180625075021 18 285 3.2 12.9 0.00 0.00 0.00 78 1020.1
20180625074018 18 325 3.2 9.7 0.00 0.00 0.00 80 1020.0
20180625073027 17 333 4.8 9.7 0.00 0.00 0.00 81 1019.9
20180625072012 17 301 1.6 4.8 0.00 0.00 0.00 82 1019.9
20180625071020 17 313 4.8 8.0 0.00 0.00 0.00 82 1019.8
20180625070026 17 297 4.8 12.9 0.00 0.00 0.00 83 1019.8
20180625065029 17 333 4.8 9.7 0.00 0.00 0.00 83 1019.7
20180625064028 17 284 1.6 4.8 0.00 0.00 0.00 84 1019.7
20180625063018 17 284 1.6 8.0 0.00 0.00 0.00 84 1019.6
20180625062029 17 318 4.8 6.4 0.00 0.00 0.00 84 1019.6
20180625061012 17 316 3.2 8.0 0.00 0.00 0.00 85 1019.5
20180625060023 17 291 3.2 6.4 0.00 0.00 0.00 85 1019.4
20180625055020 17 275 3.2 8.0 0.00 0.00 0.00 85 1019.2
20180625054018 17 322 4.8 11.3 0.00 0.00 0.00 85 1019.2
20180625053017 17 328 4.8 11.3 0.00 0.00 0.00 85 1019.2
20180625052017 17 325 8.0 11.3 0.00 0.00 0.00 85 1019.1
20180625050014 17 287 6.4 11.3 0.00 0.00 0.00 85 1018.9
20180625045013 17 322 6.4 11.3 0.00 0.00 0.00 85 1018.8
20180625044011 17 303 4.8 12.9 0.00 0.00 0.00 85 1018.7
20180625043015 17 318 8.0 12.9 0.00 0.00 0.00 85 1018.6
20180625042016 17 324 6.4 14.5 0.00 0.00 0.00 85 1018.5
20180625041023 17 303 6.4 12.9 0.00 0.00 0.00 85 1018.5
20180625040020 17 305 6.4 12.9 0.00 0.00 0.00 86 1018.5
20180625035016 17 322 6.4 11.3 0.00 0.00 0.00 86 1018.5
20180625034015 17 304 8.0 14.5 0.00 0.00 0.00 86 1018.4
20180625033017 17 311 8.0 16.1 0.00 0.00 0.00 86 1018.5
20180625032019 17 304 9.7 14.5 0.00 0.00 0.00 85 1018.4
20180625031024 17 305 4.8 12.9 0.00 0.00 0.00 85 1018.5
20180625030017 17 293 9.7 12.9 0.00 0.00 0.00 85 1018.5
20180625025017 17 301 6.4 12.9 0.00 0.00 0.00 85 1018.5
20180625024013 17 310 6.4 16.1 0.00 0.00 0.00 85 1018.5
20180625023029 17 311 6.4 12.9 0.00 0.00 0.00 85 1018.6
20180625022019 17 338 8.0 12.9 0.00 0.00 0.00 85 1018.5
20180625020024 17 292 6.4 14.5 0.00 0.00 0.00 85 1018.3
20180625015026 17 336 8.0 12.9 0.00 0.00 0.00 85 1018.3
20180625014030 17 324 9.7 12.9 0.00 0.00 0.00 85 1018.3
20180625013011 17 318 6.4 12.9 0.00 0.00 0.00 85 1018.3
20180625012031 17 293 9.7 19.3 0.00 0.00 0.00 85 1018.3
20180625011031 17 324 9.7 17.7 0.00 0.00 0.00 85 1018.4
20180625010016 17 333 12.9 20.9 0.00 0.00 0.00 85 1018.5
20180625005030 17 295 9.7 19.3 0.00 0.00 0.00 85 1018.6
20180625004015 17 341 12.9 19.3 0.00 0.00 0.00 85 1018.6
20180625003015 17 314 12.9 19.3 0.00 0.00 0.00 85 1018.7
20180625002030 17 334 8.0 16.1 0.00 0.00 0.00 85 1018.6
20180625001015 17 338 12.9 19.3 0.00 0.00 0.00 85 1018.6
20180624235018 17 294 11.3 17.7 0.00 0.00 0.00 85 1018.6
20180624234026 17 327 14.5 20.9 0.00 0.00 0.00 84 1018.7
20180624233027 17 303 14.5 22.5 0.00 0.00 0.00 84 1018.7
20180624232025 17 338 11.3 17.7 0.00 0.00 0.00 84 1018.7
20180624231012 17 345 14.5 24.1 0.00 0.00 0.00 84 1018.8
20180624230025 17 333 16.1 24.1 0.00 0.00 0.00 84 1018.8
20180624225032 17 340 14.5 24.1 0.00 0.00 0.00 84 1018.8
20180624224023 18 320 11.3 22.5 0.00 0.00 0.00 84 1018.7
20180624223017 18 346 14.5 25.7 0.00 0.00 0.00 84 1018.7
20180624222020 18 296 14.5 22.5 0.00 0.00 0.00 83 1018.7
20180624221029 18 345 14.5 24.1 0.00 0.00 0.00 83 1018.8
20180624215029 18 337 17.7 25.7 0.00 0.00 0.00 83 1018.8
20180624214022 18 325 17.7 27.4 0.00 0.00 0.00 82 1018.7
20180624213030 18 326 20.9 29.0 0.00 0.00 0.00 82 1018.6
20180624212014 18 318 17.7 25.7 0.00 0.00 0.00 82 1018.6
20180624211110 18 306 19.3 30.6 0.00 0.00 0.00 82 1018.4
20180624210018 18 343 17.7 24.1 0.00 0.00 0.00 82 1018.3
20180624205030 18 339 14.5 24.1 0.00 0.00 0.00 82 1018.3
20180624204031 18 334 17.7 24.1 0.00 0.00 0.00 82 1018.2
20180624203021 18 328 16.1 24.1 0.00 0.00 0.00 81 1018.1
20180624202025 18 336 17.7 24.1 0.00 0.00 0.00 81 1018.0
20180624201023 18 338 17.7 29.0 0.00 0.00 0.00 80 1017.9
20180624200019 18 325 17.7 25.7 0.00 0.00 0.00 79 1017.8
20180624194012 19 307 17.7 29.0 0.00 0.00 0.00 78 1017.7
20180624193020 19 330 19.3 27.4 0.00 0.00 0.00 76 1017.7